{"data":{"norad_id":67847,"intl_designator":"2026-033AC","name":"STARLINK-36618","alt_names":[],"object_type":"PAYLOAD","status":"ACTIVE","operator":null,"country":"US","launch_date":"2026-02-16","launch_site_code":"AFETR","launch_vehicle":null,"mission":null,"orbit_class":"UNKNOWN","rcs_meters":null,"size_class":null,"mass_kg":null,"dimensions":null,"purposes":["comms"],"wikipedia_slug":null,"has_3d_model":false,"image_url":null,"decayed_at":null,"tle_current":{"epoch":"2026-09-19T00:03:56.319552Z","epoch_age_seconds":195864,"freshness":"STALE","line1":"1 67847U 26033AC  26262.00273518  .00008489  00000+0  31765-3 0  9993","line2":"2 67847  43.0041 240.7134 0001507 274.0114  86.0565 15.27580084 34400","mean_motion":15.27580084,"eccentricity":0.0001507,"inclination_deg":43.0041,"raan_deg":240.7134,"arg_perigee_deg":274.0114,"mean_anomaly_deg":86.0565,"bstar":0.00031765,"rev_number":3440,"period_min":94.266743530024,"perigee_km":482.01486380668,"apogee_km":484.08282522021,"semimajor_km":6861.1858445134,"source":"CELESTRAK","updated_at":"2026-09-20T09:00:43.672613Z"}}}